sat.trackr.live / text

‹ back to catalog

STARLINK-36470

NORAD 67319 · 2026-002Q

PAYLOAD ACTIVE UNKNOWN

§ Identity

Operator
Country
US
Launch date
2026-01-04
Launch site
AFETR
Launch vehicle
Mass (kg)
RCS (m²)

Purposes: comms

External: N2YO · Heavens-Above · Gunter

§ Orbital elements

Epoch: 2026-09-19T11:21:25.564320Z

Period
94.27 min
Inclination
43.0031°
Eccentricity
0.0001755
Mean motion
15.27587666 rev/d
Perigee alt
481.8 km
Apogee alt
484.2 km
Semi-major
6,861.2 km
B*
4.3079e-4
RAAN
311.0544°
Arg perigee
285.5151°
Mean anomaly
74.5507°
Rev number
4,077

§ Raw data

STARLINK-364701 67319U 26002Q   26262.47321255  .00011614  00000+0  43079-3 0  99912 67319  43.0031 311.0544 0001755 285.5151  74.5507 15.27587666 40771

JSON: /api/v1/satellites/67319 · /tle

For live sub-satellite position, see the globe view (requires WebGL).

§ Visibility from observer

Set your observer location to see the next 7 days of passes ≥ 10°. The values pass through the URL so the page stays shareable.

No JS? Fill the form by hand. The geolocation button needs JavaScript.